Dumas, TX

8:56 AM CDT on August 29, 2016 (GMT -0500)
Moore County

Weather History for KDUX - April, 2014

Change the Weather History Date:

Thursday, April 10, 2014

  Actual Average (KBGD) Record (KBGD)
Temperature  
Mean Temperature 60 °F 57 °F  
Max Temperature 73 °F 71 °F 92 °F (1972)
Min Temperature 47 °F 43 °F 21 °F (1952)
Degree Days  
Heating Degree Days 5 9  
Month to date heating degree days 98  
Since 1 July heating degree days 3575  
Cooling Degree Days 0 1  
Month to date cooling degree days 7  
Year to date cooling degree days 14  
Growing Degree Days 10 (Base 50)    
Moisture  
Dew Point 28 °F    
Average Humidity 30    
Maximum Humidity 44    
Minimum Humidity 19    
Precipitation  
Precipitation 0.00 in 0.06 in 0.46 in (1981)
Month to date precipitation 0.56  
Year to date precipitation 3.18  
Snow  
Snow 0.00 in - 1.50 in (1989)
Month to date snowfall  
Since 1 July snowfall  
Snow Depth -    
Sea Level Pressure  
Sea Level Pressure 29.93 in    
Wind  
Wind Speed 14 mph (North)    
Max Wind Speed 23 mph    
Max Gust Speed 29 mph    
Visibility 10 miles    
Events      
T = Trace of Precipitation, MM = Missing Value Source: NWS Daily Summary

Daily Weather History Graph

Daily Weather History Graph

Search for Another Location

Airport or City:

Trip Planner

Search our weather history database for the weather conditions in past years. The results will help you decide how hot, cold, wet, or windy it might be!

Date:

Astronomy

Apr. 10, 2014 Rise Set
Actual Time 7:21 AM CDT 8:17 PM CDT
Civil Twilight 6:55 AM CDT 8:43 PM CDT
Nautical Twilight 6:24 AM CDT 9:14 PM CDT
Astronomical Twilight 5:52 AM CDT 9:46 PM CDT
Moon 4:10 PM CDT (4/10) 4:37 AM CDT (4/10)
Length of Visible Light 13h 47m
Length of Day
12h 55m
Waxing Gibbous, 80% of the Moon is Illuminated
Apr 10
Waxing Gibbous
Apr 15
Full
Apr 22
Last Quarter
Apr 29
New
May 6
First Quarter

Hourly Weather History & Observations

Time (CDT) Temp. Dew Point Humidity Pressure Visibility Wind Dir Wind Speed Gust Speed Precip Events Conditions
12:15 AM 56.1 °F 14.0 °F 19% 29.86 in 10.0 mi SW 15.0 mph - N/A   Clear
12:35 AM 57.6 °F 16.2 °F 20% 29.86 in 10.0 mi WSW 13.8 mph - N/A   Clear
12:55 AM 56.8 °F 19.0 °F 23% 29.86 in 10.0 mi WSW 12.7 mph - N/A   Clear
1:15 AM 56.1 °F 19.0 °F 24% 29.86 in 10.0 mi WSW 13.8 mph - N/A   Clear
1:35 AM 55.8 °F 19.4 °F 24% 29.86 in 10.0 mi WSW 11.5 mph - N/A   Clear
1:55 AM 54.1 °F 19.4 °F 26% 29.86 in 10.0 mi West 10.4 mph - N/A   Clear
2:15 AM 53.8 °F 19.9 °F 27% 29.86 in 10.0 mi West 11.5 mph - N/A   Clear
2:35 AM 56.7 °F 18.9 °F 23% 29.86 in 10.0 mi WSW 15.0 mph - N/A   Clear
2:55 AM 55.8 °F 19.4 °F 24% 29.86 in 10.0 mi WSW 12.7 mph - N/A   Clear
3:15 AM 53.1 °F 20.3 °F 28% 29.86 in 10.0 mi WSW 13.8 mph - N/A   Clear
3:35 AM 52.3 °F 19.6 °F 28% 29.85 in 10.0 mi WSW 13.8 mph - N/A   Clear
3:55 AM 54.5 °F 18.9 °F 25% 29.86 in 10.0 mi WSW 15.0 mph - N/A   Clear
4:15 AM 55.4 °F 18.5 °F 24% 29.85 in 10.0 mi WSW 15.0 mph - N/A   Clear
4:35 AM 54.1 °F 18.5 °F 25% 29.85 in 10.0 mi West 12.7 mph - N/A   Clear
4:55 AM 53.1 °F 19.4 °F 27% 29.85 in 10.0 mi West 12.7 mph - N/A   Clear
5:15 AM 49.8 °F 21.9 °F 33% 29.85 in 10.0 mi WNW 10.4 mph - N/A   Clear
5:35 AM 50.9 °F 20.5 °F 30% 29.85 in 10.0 mi West 13.8 mph - N/A   Clear
5:55 AM 49.1 °F 20.3 °F 32% 29.85 in 10.0 mi West 10.4 mph - N/A   Clear
6:15 AM 51.4 °F 20.8 °F 30% 29.85 in 10.0 mi West 15.0 mph - N/A   Clear
6:35 AM 53.4 °F 20.1 °F 27% 29.85 in 10.0 mi WNW 13.8 mph - N/A   Clear
6:55 AM 48.4 °F 22.1 °F 36% 29.87 in 10.0 mi NW 9.2 mph - N/A   Clear
7:15 AM 47.1 °F 22.5 °F 38% 29.87 in 10.0 mi West 11.5 mph - N/A   Clear
7:35 AM 49.6 °F 21.2 °F 33% 29.88 in 10.0 mi West 11.5 mph - N/A   Clear
7:55 AM 50.5 °F 21.2 °F 32% 29.88 in 10.0 mi West 10.4 mph - N/A   Clear
8:15 AM 52.5 °F 23.5 °F 32% 29.89 in 10.0 mi WNW 11.5 mph - N/A   Clear
8:35 AM 54.3 °F 25.5 °F 33% 29.90 in 10.0 mi WNW 10.4 mph - N/A   Clear
8:55 AM 59.9 °F 23.4 °F 25% 29.93 in 10.0 mi NNW 15.0 mph 25.3 mph N/A   Clear
9:15 AM 63.1 °F 23.5 °F 22% 29.94 in 10.0 mi North 19.6 mph 28.8 mph N/A   Clear
9:55 AM 60.1 °F 31.1 °F 33% 29.97 in 10.0 mi NNE 23.0 mph 28.8 mph N/A   Clear
10:15 AM 59.7 °F 32.5 °F 36% 29.98 in 10.0 mi North 21.9 mph 28.8 mph N/A   Clear
10:35 AM 60.1 °F 34.0 °F 38% 29.98 in 10.0 mi North 18.4 mph 28.8 mph N/A   Clear
10:55 AM 60.3 °F 34.5 °F 38% 30.00 in 10.0 mi North 23.0 mph 28.8 mph N/A   Clear
11:15 AM 60.8 °F 35.2 °F 38% 30.01 in 10.0 mi North 17.3 mph 26.5 mph N/A   Clear
11:35 AM 62.1 °F 35.2 °F 37% 30.02 in 10.0 mi North 16.1 mph 25.3 mph N/A   Clear
11:55 AM 63.7 °F 35.2 °F 35% 30.02 in 10.0 mi North 19.6 mph 26.5 mph N/A   Clear
12:15 PM 64.0 °F 35.4 °F 35% 30.02 in 10.0 mi North 16.1 mph 28.8 mph N/A   Clear
12:35 PM 65.3 °F 35.4 °F 33% 30.01 in 10.0 mi NNE 17.3 mph 28.8 mph N/A   Clear
12:55 PM 66.6 °F 35.6 °F 32% 30.01 in 10.0 mi NNE 17.3 mph 23.0 mph N/A   Clear
1:15 PM 68.2 °F 36.0 °F 31% 30.01 in 10.0 mi North 15.0 mph 21.9 mph N/A   Clear
1:35 PM 68.7 °F 36.1 °F 30% 30.01 in 10.0 mi NNE 17.3 mph 26.5 mph N/A   Clear
2:15 PM 68.9 °F 34.9 °F 29% 30.01 in 10.0 mi NE 11.5 mph 20.7 mph N/A   Clear
2:35 PM 70.2 °F 35.6 °F 28% 30.00 in 10.0 mi NNE 13.8 mph 21.9 mph N/A   Clear
3:15 PM 70.7 °F 34.9 °F 27% 30.00 in 10.0 mi NNE 13.8 mph 19.6 mph N/A   Clear
3:35 PM 71.1 °F 35.4 °F 27% 29.98 in 10.0 mi NNE 12.7 mph 18.4 mph N/A   Clear
3:55 PM 72.0 °F 35.8 °F 27% 29.98 in 10.0 mi NE 10.4 mph 17.3 mph N/A   Clear
4:15 PM 73.0 °F 35.6 °F 25% 29.98 in 10.0 mi NE 9.2 mph - N/A   Clear
4:35 PM 72.7 °F 35.1 °F 25% 29.97 in 10.0 mi ENE 11.5 mph 17.3 mph N/A   Clear
4:55 PM 73.2 °F 34.2 °F 24% 29.97 in 10.0 mi ENE 9.2 mph 17.3 mph N/A   Clear
5:15 PM 73.4 °F 34.2 °F 24% 29.96 in 10.0 mi ENE 12.7 mph 17.3 mph N/A   Clear
5:35 PM 73.2 °F 33.1 °F 23% 29.96 in 10.0 mi ENE 11.5 mph 16.1 mph N/A   Clear
5:55 PM 73.2 °F 34.0 °F 24% 29.96 in 10.0 mi ENE 8.1 mph - N/A   Clear
6:15 PM 72.7 °F 34.0 °F 24% 29.95 in 10.0 mi East 11.5 mph 16.1 mph N/A   Clear
6:35 PM 72.3 °F 32.9 °F 23% 29.94 in 10.0 mi East 13.8 mph - N/A   Clear
6:55 PM 71.8 °F 33.8 °F 25% 29.93 in 10.0 mi East 12.7 mph - N/A   Clear
7:15 PM 71.1 °F 33.4 °F 25% 29.93 in 10.0 mi East 17.3 mph - N/A   Clear
7:35 PM 69.8 °F 34.0 °F 27% 29.93 in 10.0 mi East 15.0 mph 19.6 mph N/A   Clear
7:55 PM 68.2 °F 33.6 °F 28% 29.94 in 10.0 mi East 11.5 mph - N/A   Clear
8:15 PM 66.2 °F 33.1 °F 29% 29.95 in 10.0 mi East 10.4 mph - N/A   Clear
8:35 PM 63.7 °F 32.4 °F 31% 29.94 in 10.0 mi East 10.4 mph - N/A   Clear
8:55 PM 62.6 °F 32.0 °F 32% 29.95 in 10.0 mi East 10.4 mph - N/A   Clear
9:15 PM 61.7 °F 32.2 °F 33% 29.95 in 10.0 mi East 12.7 mph - N/A   Clear
9:55 PM 60.8 °F 32.9 °F 35% 29.95 in 10.0 mi East 13.8 mph - N/A   Clear
10:15 PM 60.3 °F 32.9 °F 36% 29.96 in 10.0 mi East 13.8 mph - N/A   Clear
10:35 PM 59.0 °F 32.9 °F 37% 29.96 in 10.0 mi East 13.8 mph - N/A   Clear
10:55 PM 57.9 °F 32.5 °F 38% 29.97 in 10.0 mi East 11.5 mph - N/A   Clear
11:15 PM 56.3 °F 32.4 °F 40% 29.97 in 10.0 mi East 11.5 mph - N/A   Clear
11:35 PM 55.0 °F 32.4 °F 42% 29.97 in 10.0 mi East 10.4 mph - N/A   Clear
11:55 PM 53.8 °F 32.0 °F 44% 29.98 in 10.0 mi East 8.1 mph - N/A   Clear